Location: Cheching
(60.0667°N, 164.2167°W)
Time: 02:49:46
(UTC+00:00)

UNISAT 6 - Pass Details

Date: 19 January 2021
Orbit: 607 x 687 km, 97.7° (Epoch: 05 March)

Event Time Altitude Azimuth Distance (km) Brightness Sun altitude
Rises 15:59:50 0° 123° (ESE) 2,874 ? -25.8°
Reaches altitude 10° 16:02:15 10° 111° (ESE) 1,979 ? -25.5°
Maximum altitude 16:05:49 26° 55° (NE) 1,225 ? -25.1°
Drops below altitude 10° 16:09:28 10° 359° (N) 2,019 ? -24.6°
Enters shadow 16:10:06 - 355° (N) 2,244 ? -24.6°
